Regional Weather Roundup
Issued by NWS

Home | Current Version | Previous Version | Graphics & Text | Print | Product List | Glossary On
Versions: 1 2 3 4 5 6 7 8 9 10 11 12 13 14 15 16 17 18 19 20 21 22 23 24 25 26 27 28 29 30 31 32 33 34 35 36 37 38 39 40 41 42 43 44 45 46 47 48 49 50
000
ASUS45 KCYS 071410
RWRWY

WYOMING REGIONAL WEATHER ROUNDUP
NATIONAL WEATHER SERVICE CHEYENNE WY
700 AM MST WED DEC 07 2016

NOTE:  "FAIR" INDICATES FEW OR NO CLOUDS BELOW 12,000 FEET
WITH NO SIGNIFICANT WEATHER AND/OR OBSTRUCTIONS TO VISIBILITY.

WYZ001-071500-
YELLOWSTONE NATIONAL PARK

CITY           SKY/WX    TMP DP  RH WIND       PRES   REMARKS
LK YELLOWSTONE   N/A    -13 -18  78 NW6       29.97R WCI -27
W YELLOWSTONE  NOT AVBL

$$
WYZ002>013-054>058-071-098>099-071500-
NORTHERN WYOMING

CITY           SKY/WX    TMP DP  RH WIND       PRES   REMARKS
JACKSON        FAIR     -11 -15  84 N8        30.04R WCI -28
CODY           FLURRIES  -4  -8  83 N3        30.21R
GREYBULL       MOCLDY     5  -3  69 NW6       30.27R WCI  -6
WORLAND        CLOUDY     7   0  73 N8        30.25R WCI  -6
SHERIDAN       CLOUDY     2  -7  66 NW12      30.32R WCI -15
BUFFALO        MOCLDY    -3  -9  75 NW13G21   30.21R WCI -22
GILLETTE       CLOUDY    -2  -5  87 NW12      30.24R WCI -20
HULETT         CLOUDY     0  -8  71 MISG      30.25R
NEWCASTLE      FAIR       0  -6  78 NW14      30.22R WCI -19

$$
WYZ014>020-022>026-101>103-071500-
CENTRAL WYOMING

CITY           SKY/WX    TMP DP  RH WIND       PRES   REMARKS
BIG PINEY      FAIR     -10 -13  86 VRB3      30.00R
PINEDALE       FLURRIES  -6  -9  84 N3        30.00R
DUBOIS         CLOUDY    -8 -13  77 NW12      29.98R WCI -27
LANDER         CLOUDY     3   1  91 N3        30.13R
RIVERTON       CLOUDY     5   0  79 N5        30.14R WCI  -4
CASPER         CLOUDY    -8 -12  83 SW3       30.16R
DOUGLAS        FLURRIES  -2  -8  76 N5        30.20R WCI -12

$$
WYZ021-027>030-104>119-071500-
SOUTHERN WYOMING

CITY           SKY/WX    TMP DP  RH WIND       PRES   REMARKS
EVANSTON       MOCLDY     6  -1  73 NW7       30.01R WCI  -6
FORT BRIDGER   FAIR       2  -2  84 W8        30.04R WCI -12
ROCK SPRINGS   CLOUDY     1  -3  83 E9        30.01R WCI -14
DIXON          CLOUDY     4  -1  79 CALM      30.03R
RAWLINS        CLOUDY    -2  -7  79 N6        29.99R WCI -14
SARATOGA       LGT SNOW   3   0  85 W7        29.97R WCI  -9
LARAMIE        FAIR      -7 -11  83 NW13      29.91R WCI -27
CHEYENNE       CLOUDY     0  -6  76 N13G20    30.02R WCI -18
TORRINGTON     LGT SNOW   5  -1  76 N10       30.21R WCI -10
PINE BLUFFS    CLOUDY     5   1  85 MISG      30.11R

$$



USA.gov is the U.S. government's official web portal to all federal, state and local government web resources and services.